When you browse on this site, cookies collect data to enhance your experience and personalize the content and advertising you see.
Visit our Privacy Policy to learn more. By continuing to use the site, you agree to this use of cookies and data.
  • In United Kingdom
  • List of Countries
  • For 7 days
  • Water Temperature
  • Weather Map
  • Weather Widgets
  • user-avatar
    Login

    Hourly Weather Pechenyuhy

    Today, 20 September, Friday

    Time Temperature Precipitation Wind Pressure Humidity
    00:00 +4°C° 0 mm 3 mps 745 mmHg 96%
    01:00 +3°C° 0 mm 3 mps 745 mmHg 96%
    02:00 +4°C° 0 mm 2 mps 745 mmHg 95%
    03:00 +3°C° 0 mm 2 mps 745 mmHg 95%
    04:00 +3°C° 0 mm 2 mps 745 mmHg 95%
    05:00 +3°C° 0 mm 2 mps 745 mmHg 94%
    06:00 +4°C° 0 mm 2 mps 745 mmHg 90%
    07:00 +5°C° 0 mm 3 mps 745 mmHg 85%
    08:00 +7°C° 0 mm 3 mps 745 mmHg 80%
    09:00 +9°C° 0 mm 3 mps 745 mmHg 73%
    10:00 +10°C° 0 mm 4 mps 745 mmHg 67%
    11:00 +12°C° 0 mm 4 mps 745 mmHg 60%
    12:00 +12°C° 0.3 mm 4 mps 745 mmHg 60%
    13:00 +12°C° 0.3 mm 4 mps 744 mmHg 60%
    14:00 +12°C° 0.3 mm 4 mps 744 mmHg 60%
    15:00 +11°C° 0.5 mm 4 mps 744 mmHg 66%
    16:00 +10°C° 0.5 mm 4 mps 744 mmHg 73%
    17:00 +8°C° 0.5 mm 4 mps 744 mmHg 79%
    18:00 +8°C° 0.1 mm 3 mps 744 mmHg 84%
    19:00 +5°C° 0.1 mm 3 mps 745 mmHg 88%
    20:00 +4°C° 0.1 mm 3 mps 745 mmHg 93%
    21:00 +4°C° 0 mm 3 mps 745 mmHg 93%
    22:00 +3°C° 0 mm 3 mps 745 mmHg 93%
    23:00 +3°C° 0 mm 3 mps 745 mmHg 93%

    Tomorrow, 21 September, Saturday

    Time Temperature Precipitation Wind Pressure Humidity
    00:00 +3°C° 0 mm 3 mps 745 mmHg 93%
    01:00 +2°C° 0 mm 3 mps 746 mmHg 94%
    02:00 +1°C° 0 mm 3 mps 746 mmHg 95%
    03:00 +1°C° 0 mm 3 mps 746 mmHg 95%
    04:00 +1°C° 0 mm 3 mps 746 mmHg 96%
    05:00 0°C° 0 mm 3 mps 747 mmHg 96%
    06:00 +2°C° 0 mm 3 mps 747 mmHg 92%
    07:00 +3°C° 0 mm 3 mps 747 mmHg 89%
    08:00 +4°C° 0 mm 3 mps 748 mmHg 85%
    09:00 +5°C° 0 mm 4 mps 748 mmHg 75%
    10:00 +7°C° 0 mm 4 mps 748 mmHg 65%
    11:00 +8°C° 0 mm 5 mps 748 mmHg 55%
    12:00 +10°C° 0 mm 4 mps 747 mmHg 51%
    13:00 +10°C° 0 mm 4 mps 747 mmHg 48%
    14:00 +10°C° 0 mm 4 mps 747 mmHg 44%
    15:00 +10°C° 0 mm 3 mps 747 mmHg 47%
    16:00 +9°C° 0 mm 3 mps 746 mmHg 50%
    17:00 +9°C° 0 mm 2 mps 746 mmHg 53%
    18:00 +8°C° 0 mm 3 mps 746 mmHg 57%
    19:00 +8°C° 0 mm 3 mps 745 mmHg 60%
    20:00 +7°C° 0 mm 3 mps 745 mmHg 63%
    21:00 +6°C° 0.1 mm 4 mps 744 mmHg 71%
    22:00 +6°C° 0.1 mm 4 mps 744 mmHg 78%
    23:00 +6°C° 0.1 mm 5 mps 743 mmHg 86%

    Day after tomorrow, 22 September, Sunday

    Time Temperature Precipitation Wind Pressure Humidity
    00:00 +6°C° 0.3 mm 5 mps 743 mmHg 89%
    01:00 +7°C° 0.3 mm 5 mps 742 mmHg 92%
    02:00 +7°C° 0.3 mm 5 mps 741 mmHg 95%
    03:00 +8°C° 0.5 mm 6 mps 741 mmHg 94%
    04:00 +9°C° 0.5 mm 7 mps 741 mmHg 92%
    05:00 +10°C° 0.5 mm 7 mps 740 mmHg 91%
    06:00 +10°C° 0.1 mm 8 mps 740 mmHg 89%
    07:00 +10°C° 0.1 mm 8 mps 740 mmHg 86%
    08:00 +10°C° 0.1 mm 8 mps 740 mmHg 84%
    09:00 +10°C° 0 mm 8 mps 741 mmHg 82%
    10:00 +10°C° 0 mm 8 mps 741 mmHg 80%
    11:00 +11°C° 0 mm 8 mps 741 mmHg 78%
    12:00 +11°C° 0 mm 8 mps 741 mmHg 76%
    13:00 +12°C° 0 mm 8 mps 741 mmHg 74%
    14:00 +12°C° 0 mm 8 mps 741 mmHg 72%
    15:00 +12°C° 0.1 mm 8 mps 741 mmHg 71%
    16:00 +12°C° 0.1 mm 8 mps 741 mmHg 70%
    17:00 +12°C° 0.1 mm 8 mps 741 mmHg 70%
    18:00 +11°C° 0.5 mm 7 mps 741 mmHg 75%
    19:00 +9°C° 0.5 mm 6 mps 742 mmHg 80%
    20:00 +8°C° 0.5 mm 5 mps 742 mmHg 85%
    21:00 +6°C° 0 mm 5 mps 743 mmHg 85%
    22:00 +5°C° 0 mm 4 mps 744 mmHg 85%
    23:00 +4°C° 0 mm 4 mps 744 mmHg 86%

    23 September, Monday

    Time Temperature Precipitation Wind Pressure Humidity
    00:00 +3°C° 0 mm 3 mps 745 mmHg 88%
    01:00 +2°C° 0 mm 3 mps 745 mmHg 91%
    02:00 +1°C° 0 mm 3 mps 746 mmHg 93%
    03:00 +1°C° 0 mm 3 mps 747 mmHg 93%
    04:00 0°C° 0 mm 3 mps 747 mmHg 94%
    05:00 +1°C° 0 mm 2 mps 747 mmHg 95%
    06:00 +1°C° 0 mm 3 mps 748 mmHg 90%
    07:00 +2°C° 0 mm 3 mps 748 mmHg 85%
    08:00 +3°C° 0 mm 3 mps 748 mmHg 80%
    09:00 +5°C° 0 mm 2 mps 749 mmHg 70%
    10:00 +7°C° 0 mm 2 mps 749 mmHg 61%
    11:00 +8°C° 0 mm 2 mps 749 mmHg 52%
    12:00 +9°C° 0 mm 2 mps 749 mmHg 48%
    13:00 +10°C° 0 mm 2 mps 749 mmHg 44%
    14:00 +10°C° 0 mm 2 mps 748 mmHg 40%
    15:00 +11°C° 0 mm 1 mps 748 mmHg 44%
    16:00 +10°C° 0 mm 1 mps 748 mmHg 48%
    17:00 +9°C° 0 mm 1 mps 748 mmHg 52%
    18:00 +8°C° 0 mm 1 mps 748 mmHg 56%
    19:00 +6°C° 0 mm 1 mps 748 mmHg 59%
    20:00 +5°C° 0 mm 1 mps 748 mmHg 63%
    21:00 +5°C° 0 mm 1 mps 748 mmHg 64%
    22:00 +5°C° 0 mm 1 mps 748 mmHg 65%
    23:00 +4°C° 0 mm 1 mps 748 mmHg 65%

    24 September, Tuesday

    Time Temperature Precipitation Wind Pressure Humidity
    00:00 +4°C° 0 mm 1 mps 748 mmHg 67%
    01:00 +4°C° 0 mm 1 mps 748 mmHg 68%
    02:00 +4°C° 0 mm 1 mps 748 mmHg 69%
    03:00 +2°C° 0 mm 2 mps 748 mmHg 70%
    04:00 +2°C° 0 mm 2 mps 748 mmHg 72%
    05:00 +2°C° 0 mm 2 mps 748 mmHg 74%
    06:00 +3°C° 0 mm 2 mps 748 mmHg 69%
    07:00 +4°C° 0 mm 2 mps 748 mmHg 65%
    08:00 +5°C° 0 mm 3 mps 748 mmHg 61%
    09:00 +7°C° 0 mm 3 mps 748 mmHg 55%
    10:00 +9°C° 0 mm 3 mps 748 mmHg 50%
    11:00 +10°C° 0 mm 3 mps 748 mmHg 44%
    12:00 +11°C° 0 mm 3 mps 748 mmHg 42%
    13:00 +13°C° 0 mm 2 mps 747 mmHg 40%
    14:00 +13°C° 0 mm 2 mps 747 mmHg 37%
    15:00 +12°C° 0 mm 2 mps 747 mmHg 42%
    16:00 +10°C° 0 mm 2 mps 747 mmHg 46%
    17:00 +9°C° 0 mm 2 mps 746 mmHg 50%
    18:00 +8°C° 0 mm 2 mps 746 mmHg 55%
    19:00 +6°C° 0 mm 2 mps 746 mmHg 59%
    20:00 +5°C° 0 mm 2 mps 746 mmHg 63%
    21:00 +4°C° 0 mm 2 mps 746 mmHg 65%
    22:00 +4°C° 0 mm 2 mps 746 mmHg 66%
    23:00 +3°C° 0 mm 2 mps 746 mmHg 68%

    25 September, Wednesday

    Time Temperature Precipitation Wind Pressure Humidity
    00:00 +3°C° 0 mm 2 mps 746 mmHg 68%
    01:00 +3°C° 0 mm 2 mps 746 mmHg 69%
    02:00 +2°C° 0 mm 2 mps 746 mmHg 70%
    03:00 +2°C° 0 mm 2 mps 746 mmHg 71%
    04:00 +2°C° 0 mm 2 mps 746 mmHg 72%
    05:00 +1°C° 0 mm 2 mps 746 mmHg 73%
    06:00 +2°C° 0 mm 3 mps 746 mmHg 68%
    07:00 +3°C° 0 mm 3 mps 746 mmHg 64%
    08:00 +5°C° 0 mm 3 mps 746 mmHg 59%
    09:00 +7°C° 0 mm 3 mps 746 mmHg 54%
    10:00 +9°C° 0 mm 3 mps 746 mmHg 49%
    11:00 +11°C° 0 mm 3 mps 746 mmHg 44%
    12:00 +11°C° 0 mm 3 mps 746 mmHg 43%
    13:00 +13°C° 0 mm 2 mps 746 mmHg 42%
    14:00 +13°C° 0 mm 2 mps 746 mmHg 41%
    15:00 +12°C° 0 mm 2 mps 746 mmHg 46%
    16:00 +10°C° 0 mm 3 mps 746 mmHg 50%
    17:00 +9°C° 0 mm 3 mps 746 mmHg 55%
    18:00 +8°C° 0 mm 3 mps 746 mmHg 60%
    19:00 +5°C° 0 mm 3 mps 746 mmHg 65%
    20:00 +4°C° 0 mm 3 mps 747 mmHg 70%
    21:00 +3°C° 0 mm 3 mps 747 mmHg 72%
    22:00 +2°C° 0 mm 3 mps 747 mmHg 75%
    23:00 +2°C° 0 mm 3 mps 747 mmHg 78%
    Show more